{"data":{"norad_id":60135,"intl_designator":"2024-120A","name":"STARLINK-32043","alt_names":[],"object_type":"PAYLOAD","status":"ACTIVE","operator":null,"country":"US","launch_date":"2024-06-27","launch_site_code":"AFETR","launch_vehicle":null,"mission":null,"orbit_class":"UNKNOWN","rcs_meters":null,"size_class":null,"mass_kg":null,"dimensions":null,"purposes":["comms"],"wikipedia_slug":null,"has_3d_model":false,"image_url":null,"decayed_at":null,"tle_current":{"epoch":"2026-09-21T20:06:16.727040Z","epoch_age_seconds":65938,"freshness":"FRESH","line1":"1 60135U 24120A   26264.83769360 -.00000729  00000+0 -10440-4 0  9998","line2":"2 60135  53.1594 125.5531 0001374  89.3882 270.7278 15.34389284126457","mean_motion":15.34389284,"eccentricity":0.0001374,"inclination_deg":53.1594,"raan_deg":125.5531,"arg_perigee_deg":89.3882,"mean_anomaly_deg":270.7278,"bstar":-1.044e-5,"rev_number":12645,"period_min":93.848413503388,"perigee_km":461.79515477752,"apogee_km":463.67502642801,"semimajor_km":6840.8720906028,"source":"CELESTRAK","updated_at":"2026-09-22T09:00:49.176199Z"}}}